This is the latest recevied weather packets stored in our database for station/object N4ASP-13. If no packets are shown the sender has not sent any weather packets the latest 10 day(s).
| Time | Temp. | Humidity | Pressure | Rain* | Wind** | Luminosity | Snow |
|---|---|---|---|---|---|---|---|
| 1778344753 | 20° C | 69% | 1011.7 hPa | 0 mm | - | 434 W/m² | - |
| 1778344692 | 20° C | 68% | 1011.7 hPa | 0 mm | - | 434 W/m² | - |
| 1778344632 | 20° C | 68% | 1011.8 hPa | 0 mm | - | 434 W/m² | - |
| 1778344567 | 20° C | 67% | 1011.8 hPa | 0 mm | - | 452 W/m² | - |
| 1778344505 | 20° C | 68% | 1011.8 hPa | 0 mm | - | 387 W/m² | - |
| 1778344447 | 20° C | 69% | 1011.7 hPa | 0 mm | - | 1218 W/m² | - |
| 1778344385 | 20° C | 68% | 1011.8 hPa | 0 mm | - | 1218 W/m² | - |
| 1778344326 | 20° C | 68% | 1011.8 hPa | 0 mm | - | 1218 W/m² | - |
| 1778344261 | 20° C | 68% | 1012 hPa | 0 mm | - | 1183 W/m² | - |
| 1778344202 | 20° C | 70% | 1011.8 hPa | 0 mm | - | 1192 W/m² | - |
| 1778344142 | 19.44° C | 71% | 1012 hPa | 0 mm | - | 1099 W/m² | - |
| 1778344083 | 19.44° C | 69% | 1012 hPa | 0 mm | - | 1099 W/m² | - |
| 1778344021 | 19.44° C | 68% | 1012 hPa | 0 mm | - | 1099 W/m² | - |
| 1778343958 | 19.44° C | 68% | 1012 hPa | 0 mm | - | 1229 W/m² | - |
| 1778343899 | 19.44° C | 68% | 1012 hPa | 0 mm | - | 1229 W/m² | - |
| 1778343838 | 19.44° C | 69% | 1012.1 hPa | 0 mm | - | 714 W/m² | - |
| 1778343778 | 19.44° C | 69% | 1012 hPa | 0 mm | - | 714 W/m² | - |
| 1778343718 | 19.44° C | 70% | 1012 hPa | 0 mm | - | 714 W/m² | - |
| 1778343659 | 19.44° C | 72% | 1012 hPa | 0 mm | - | 714 W/m² | - |
| 1778343596 | 19.44° C | 71% | 1012 hPa | 0 mm | - | 779 W/m² | - |
| 1778343533 | 19.44° C | 71% | 1012.1 hPa | 0 mm | - | 1002 W/m² | - |
| 1778343474 | 19.44° C | 70% | 1012.1 hPa | 0 mm | - | 1002 W/m² | - |
| 1778343414 | 19.44° C | 70% | 1012 hPa | 0 mm | - | 1153 W/m² | - |
| 1778343351 | 19.44° C | 71% | 1012.1 hPa | 0 mm | - | 1153 W/m² | - |
| 1778343292 | 18.89° C | 70% | 1012 hPa | 0 mm | - | 1153 W/m² | - |
* Rain latest hour (hover to see other rain measurements)
** Current wind speed in m/s (hover to see current wind gust speed)